Probability
0 0 0 0 0 0 0 0 0 0 0 0 0 0 0 0 0 0 0 0 0 0 0 0 0 0 0 0 0 0 0 0 0 0 0 1 1 1 0 0 0 0 0 0 1 2 2 1 1
0 0 0 0 0 0 0 0 0 0 0 0 0 0 0 0 0 0 0 0 0 0 0 0 0 0 0 0 0 0 0 0 0 0 0 0 0 0 0 0 0 0 0 0 1 2 2 1 1
0 0 0 0 0 0 0 0 0 0 0 0 0 0 0 0 0 0 0 0 0 0 0 0 0 0 0 0 0 0 0 0 0 0 0 0 0 0 0 0 0 0 0 0 0 1 1 1 1
0 0 0 0 0 0 0 0 0 0 0 0 0 0 0 0 0 0 0 0 0 0 0 0 0 0 0 0 0 0 0 0 0 0 0 0 0 0 0 0 0 0 0 0 0 0 0 0 1
0 0 0 0 0 0 0 0 0 0 0 0 0 0 0 0 0 0 0 0 0 0 0 0 0 0 0 0 0 0 0 0 1 0 0 0 0 0 0 0 0 0 0 0 0 0 0 1 1
0 0 0 0 0 0 0 0 0 0 0 0 0 0 0 0 0 0 0 0 0 0 0 0 0 0 0 0 0 0 0 0 0 0 0 0 0 0 0 0 0 0 0 0 0 0 0 1 2
0 0 0 0 0 0 0 0 0 0 0 0 0 0 0 0 0 0 0 0 0 0 0 0 0 0 0 1 1 0 0 0 0 0 0 0 0 0 0 0 0 0 1 0 0 0 0 1 2
0 0 0 0 0 0 0 0 0 0 0 0 0 0 0 0 0 0 0 0 0 0 0 0 0 0 0 1 2 1 0 0 0 0 0 0 0 0 0 0 0 0 0 0 0 0 0 1 2
0 0 0 0 0 0 0 0 0 0 0 0 0 0 0 0 0 0 0 0 0 0 0 0 0 0 0 1 1 1 0 0 0 0 0 0 0 0 0 0 0 0 0 0 0 0 0 2 3
0 0 0 0 0 0 0 0 0 0 0 0 0 0 0 0 0 0 0 0 0 0 0 0 0 0 0 0 0 0 0 0 0 0 0 0 0 0 0 0 0 0 0 0 0 0 0 1 1
0 0 0 0 0 0 0 0 0 0 0 0 0 0 0 0 0 0 0 0 0 0 0 0 0 0 0 0 0 0 0 0 0 0 0 0 0 0 0 0 0 0 0 0 0 0 0 0 0
0 0 0 0 0 0 0 0 0 0 0 0 0 0 0 0 0 0 0 0 0 0 0 0 0 0 0 0 0 0 0 0 0 0 0 0 0 0 0 0 0 0 0 0 0 0 0 0 0
0 0 0 0 0 0 0 0 0 0 0 0 0 0 0 0 0 0 0 0 0 0 0 0 0 0 0 0 0 0 0 0 0 0 0 0 0 0 0 0 0 0 0 0 0 0 0 0 0
0 0 0 0 0 0 0 0 0 0 0 0 0 0 0 0 0 0 0 0 0 0 0 0 0 0 0 0 0 0 0 0 0 0 0 0 0 0 0 0 0 0 0 0 0 0 0 0 0
0 0 0 0 0 0 0 0 0 0 0 0 0 0 0 0 0 0 0 0 0 0 0 0 0 0 0 0 0 0 0 0 0 0 0 0 0 0 0 0 0 0 0 0 0 0 0 0 0
0 0 0 0 0 0 0 0 0 0 0 0 0 0 0 0 0 0 0 0 0 0 0 0 0 0 0 0 0 0 0 0 0 0 0 0 0 0 0 0 0 0 0 0 0 0 0 0 0
0 0 0 0 0 0 0 0 0 0 0 0 0 0 0 0 0 0 0 0 0 0 0 0 0 0 0 0 0 0 0 0 0 0 0 0 0 0 0 0 0 0 0 0 0 0 0 0 0
0 0 0 0 0 0 0 0 0 0 0 0 0 0 0 0 0 0 0 0 0 0 0 0 0 0 0 0 0 0 0 0 0 0 0 0 0 0 0 0 0 0 0 0 0 0 0 0 0
0 0 0 0 0 0 0 0 0 0 0 0 0 0 0 0 0 0 0 0 0 0 0 0 0 0 0 0 0 0 0 0 0 0 0 0 0 0 0 0 0 0 0 0 0 0 0 0 0
0 0 0 0 0 0 0 0 0 0 0 0 0 0 0 0 0 0 0 0 0 0 0 0 0 0 0 0 0 0 0 0 0 0 0 0 0 0 0 0 0 0 0 0 0 0 0 0 0
0 0 0 0 0 0 0 0 0 0 0 0 0 0 0 0 0 0 0 0 0 0 0 0 0 0 0 0 0 0 0 0 0 0 0 0 0 0 0 0 0 0 0 0 0 0 0 0 0
0 0 0 0 0 0 0 0 0 0 0 0 0 0 0 0 0 0 0 0 0 0 0 0 0 0 0 0 0 0 0 0 0 0 0 0 0 0 0 0 0 0 0 0 0 0 0 0 0
0 0 0 0 0 0 0 0 0 0 0 0 0 0 0 0 0 0 0 0 0 0 0 0 0 0 0 0 0 0 0 0 0 0 0 0 0 0 0 0 0 0 0 0 0 0 0 0 0
0 0 0 0 0 0 0 0 0 0 0 0 0 0 0 0 0 0 0 0 0 0 0 0 0 0 0 0 0 0 0 0 0 0 0 0 0 0 0 0 0 0 0 0 0 0 0 0 0
0 0 0 0 0 0 0 0 0 0 0 0 0 0 0 0 0 0 0 0 0 0 0 0 0 0 0 0 0 0 0 0 0 0 0 0 0 0 0 0 0 0 0 0 0 0 0 0 0
0 0 0 0 0 0 0 0 0 0 0 0 0 0 0 0 0 0 0 0 0 0 0 0 0 0 0 0 0 0 0 0 0 0 0 0 0 0 0 0 0 0 0 0 0 0 0 0 0
0 0 0 0 0 0 0 0 0 0 0 0 0 0 0 0 0 0 0 0 0 0 0 0 0 0 0 0 0 0 0 0 0 0 0 0 0 0 0 0 0 0 0 0 0 0 0 0 0
0 0 0 0 0 0 0 0 0 0 0 0 0 0 0 0 0 0 0 0 0 0 0 0 0 0 0 0 0 0 0 0 0 0 0 0 0 0 0 0 0 0 0 0 0 0 0 0 0
0 0 0 0 0 0 0 0 0 0 0 0 0 0 0 0 0 0 0 0 0 0 0 0 0 0 0 0 0 0 0 0 0 0 0 0 0 0 0 0 0 0 0 0 0 0 0 0 0
0 0 0 0 0 0 0 0 0 0 0 0 0 0 0 0 0 0 0 0 0 0 0 0 0 0 0 0 0 0 0 0 0 0 0 0 0 0 0 0 0 0 0 0 0 0 0 0 0
Wind_Speed
2 3 3 3 5 5 3 2 1 2 3 3 4 6 6 5 3 3 1 1 2 3 3 4 7 7 8 8 9 10 10 10 10 9 9 9 9 9 8 8 9 9 9 9 8 9 9 9 8
0 2 3 4 5 3 2 1 2 2 3 3 4 5 6 5 3 3 1 2 3 3 3 4 8 8 8 9 10 10 10 9 9 9 8 8 8 7 7 7 8 8 8 8 8 8 8 8 8
1 2 4 4 4 2 1 1 3 4 4 3 4 5 4 3 2 2 1 3 4 3 3 4 8 8 9 9 9 9 9 9 9 8 8 8 7 6 7 6 6 6 7 7 7 7 7 7 7
3 4 5 5 4 1 1 2 4 4 4 5 4 5 3 3 1 3 4 4 4 4 3 4 8 8 9 9 9 9 9 8 8 8 7 7 7 6 6 6 6 5 6 6 6 6 6 7 7
4 4 5 4 3 2 1 1 2 3 3 3 3 4 3 4 4 6 5 4 4 3 3 3 7 8 8 9 9 8 8 8 7 7 7 7 6 6 5 5 5 5 5 6 6 5 6 6 6
4 4 5 2 1 2 2 1 2 4 4 3 4 4 2 1 4 4 4 4 3 3 3 3 6 7 8 8 8 7 8 7 7 6 6 6 6 6 5 5 5 5 5 6 5 5 5 5 6
4 4 4 3 2 1 1 2 3 4 4 2 3 5 2 1 2 4 4 4 3 3 3 3 3 4 6 6 6 6 6 6 7 6 6 6 5 5 5 4 4 4 5 5 5 5 5 5 6
4 5 3 2 2 1 2 2 2 3 3 3 3 5 4 3 4 5 5 4 3 3 3 3 3 4 4 4 5 6 5 5 6 6 6 6 5 5 5 4 4 4 4 4 5 5 5 6 6
3 5 2 3 4 2 2 3 2 2 4 3 3 3 3 7 7 6 4 3 2 2 2 2 2 3 3 3 4 5 6 7 6 5 6 5 4 4 3 3 3 3 4 4 4 5 5 6 7
4 3 2 3 4 4 3 3 3 3 3 3 4 4 6 7 7 5 4 3 1 0 1 1 1 2 2 2 3 3 3 3 3 3 3 3 3 3 4 5 6 6 6 5 6 6 6 5 4
3 3 1 1 3 5 4 3 3 6 2 4 6 7 7 6 5 4 3 2 2 1 1 0 0 1 1 2 1 1 2 2 2 3 3 2 2 2 3 3 4 5 5 4 5 4 3 3 3
3 2 2 2 3 4 4 4 3 2 2 4 7 8 7 7 5 4 4 3 2 2 1 1 0 1 1 1 1 1 1 1 1 2 2 2 1 2 2 2 2 3 2 3 3 2 4 4 4
3 2 3 4 6 5 5 4 4 2 3 7 8 7 6 5 4 3 3 2 2 2 2 1 1 1 1 1 1 2 1 1 1 2 2 2 2 1 2 2 2 2 2 3 3 3 4 4 5
2 4 3 4 5 3 5 3 3 2 5 7 7 5 4 5 4 3 3 3 2 2 2 1 1 2 2 2 2 1 1 1 1 1 1 2 2 2 2 2 2 2 2 3 3 4 4 4 4
3 4 4 3 3 2 4 2 1 3 6 6 5 4 4 3 3 4 4 4 4 3 2 2 2 2 3 3 2 2 1 1 2 1 2 2 2 2 2 2 2 2 2 4 4 5 4 4 5
4 4 2 2 2 2 4 2 2 4 7 6 5 4 3 3 4 4 4 4 4 3 3 3 3 3 3 3 2 2 2 2 2 2 2 2 3 3 3 3 2 2 3 3 4 4 4 5 4
3 2 1 2 1 3 3 3 3 5 7 6 5 5 4 4 3 3 4 4 4 4 4 3 4 4 4 3 3 3 3 3 2 2 2 2 3 3 3 3 2 3 3 3 4 4 3 4 4
3 2 2 3 2 3 3 3 3 5 6 6 6 5 5 5 6 5 4 4 4 4 5 5 4 4 4 3 3 3 3 3 3 3 2 3 2 3 3 3 3 3 3 3 4 4 4 3 4
4 4 2 3 2 3 4 4 5 6 6 6 6 6 6 7 5 4 4 4 4 4 5 5 5 3 3 2 2 2 2 1 2 2 3 3 2 3 3 4 3 3 3 4 4 4 5 3 2
3 3 1 1 1 3 2 4 4 6 7 7 8 8 8 5 4 4 5 5 5 5 5 5 4 4 3 2 2 2 2 1 1 2 3 3 3 3 3 4 3 3 4 4 3 3 3 2 2
3 4 4 2 1 2 1 3 3 4 4 4 6 7 6 8 8 6 6 6 5 6 6 6 5 4 3 3 3 3 3 3 3 3 3 3 3 3 3 4 4 3 3 3 3 3 4 2 2
3 4 4 4 3 1 1 3 6 4 4 6 7 7 7 8 7 7 7 7 7 7 6 5 5 4 3 4 4 4 2 1 0 1 1 3 4 3 3 4 4 3 3 3 2 2 2 3 2
4 2 3 3 3 1 0 2 7 1 5 9 9 9 9 9 9 9 9 8 7 6 6 5 5 4 3 4 5 4 3 2 1 1 3 3 3 3 3 3 3 3 2 2 2 3 2 2 2
5 6 6 5 4 1 3 3 7 5 7 6 8 9 9 9 9 8 6 6 5 5 5 5 5 4 4 4 4 5 5 3 2 2 2 2 2 2 3 3 3 3 2 2 2 3 3 2 2
4 6 3 3 2 4 2 3 9 7 6 7 9 10 9 9 9 8 8 8 7 7 7 6 6 5 4 4 4 4 5 4 4 2 2 2 1 1 1 2 2 2 2 2 3 3 3 2 3
3 7 6 4 4 4 1 5 8 5 4 4 5 6 8 8 9 9 10 9 9 8 8 7 7 5 5 5 4 3 4 3 2 2 2 2 1 1 1 2 3 2 2 3 3 3 3 3 3
5 3 5 5 2 1 4 6 8 2 1 0 2 5 7 9 10 10 9 9 8 9 8 9 8 6 5 5 4 4 3 3 3 3 2 2 1 1 2 3 3 3 3 3 4 3 3 3 3
5 7 5 4 3 2 5 4 5 4 3 1 2 5 6 7 8 8 8 8 8 8 7 7 7 7 6 5 4 4 4 4 3 3 3 2 2 2 3 3 3 3 3 3 4 3 3 4 3
4 3 4 4 4 4 2 7 6 5 4 5 5 5 6 8 9 9 8 7 7 7 7 7 7 6 5 5 4 4 4 3 3 3 3 3 2 3 3 3 3 3 3 3 4 3 3 4 4
4 6 7 5 3 4 3 8 5 4 4 4 4 4 5 7 7 7 7 7 7 7 7 7 7 7 6 6 5 4 4 4 3 3 3 3 3 3 3 3 4 3 3 3 4 4 3 4 4
Wind_Direction
357 80 84 61 57 54 54 11 56 63 55 48 57 72 81 68 68 102 337 56 85 65 50 81 96 98 100 103 99 95 93 92 95 101 103 102 102 102 102 101 99 98 98 95 91 88 88 88 84
93 108 62 62 78 71 22 7 71 69 127 123 63 61 69 67 64 90 58 70 79 78 64 87 97 97 97 100 100 99 98 97 98 101 100 99 100 100 98 98 100 99 98 95 90 88 86 83 79
120 72 77 68 79 119 127 73 107 87 83 80 69 52 63 68 86 113 130 108 80 66 64 90 99 98 97 96 97 97 98 98 97 99 99 98 98 102 103 100 103 101 99 94 89 87 88 83 76
80 49 54 65 70 38 135 151 133 115 72 53 82 67 55 26 101 126 121 106 89 68 66 91 96 94 93 95 97 97 97 97 97 98 99 97 97 103 104 103 104 102 98 94 86 83 85 82 78
62 74 63 57 45 13 32 109 107 93 79 61 85 86 51 8 82 107 109 102 99 79 65 86 99 94 93 93 94 94 95 94 91 90 95 96 94 94 97 99 97 98 97 93 84 80 81 79 77
56 66 80 91 59 33 36 59 91 88 95 90 91 93 67 55 97 110 102 94 94 86 63 61 92 95 92 92 91 90 89 91 90 86 87 89 90 91 94 96 94 95 95 93 85 77 77 75 71
94 85 104 125 113 69 103 78 91 103 101 104 111 97 92 111 114 113 99 88 76 73 64 41 39 55 69 77 80 83 82 82 84 85 85 82 82 83 87 93 100 100 96 91 86 79 74 73 73
112 96 87 115 133 132 105 86 77 91 99 93 97 126 159 173 123 101 89 78 66 57 50 38 35 38 34 32 57 68 69 69 76 76 74 72 65 62 64 64 79 93 91 91 90 85 82 78 76
88 78 130 180 166 160 131 108 79 65 91 70 61 118 141 126 115 102 88 70 61 62 34 30 26 30 27 13 37 42 50 50 50 50 55 51 34 29 30 30 61 89 91 84 84 86 86 78 67
83 109 190 194 169 148 126 114 127 92 77 77 74 75 101 113 122 124 131 143 155 182 310 4 4 9 15 12 34 22 32 37 38 34 36 38 34 25 30 28 42 60 67 63 67 74 74 71 59
97 139 149 98 137 126 118 108 108 120 133 176 154 143 129 125 131 142 156 167 189 197 248 247 39 7 25 21 21 22 27 30 30 34 43 43 39 29 31 34 31 38 46 43 47 58 64 70 72
91 61 100 104 104 106 123 119 103 126 179 157 146 144 140 145 156 165 171 177 176 179 221 267 148 82 43 45 46 47 33 29 29 29 49 62 54 37 33 43 38 40 39 48 51 61 70 73 76
79 76 56 83 87 91 95 97 110 86 96 110 119 129 144 157 167 173 172 174 172 184 209 228 144 119 85 54 41 63 38 35 30 30 41 82 88 70 57 47 45 46 52 62 66 68 75 75 73
104 87 78 69 77 76 98 85 94 128 122 118 129 148 161 169 170 158 159 172 179 187 188 161 124 131 110 83 76 69 46 37 50 46 47 79 91 91 79 61 48 46 56 67 74 75 78 73 74
92 82 55 43 78 105 103 58 166 158 138 137 152 166 176 189 180 184 185 179 176 173 152 146 138 116 105 93 85 81 61 60 64 61 58 77 92 101 98 83 63 52 66 74 75 69 71 75 70
71 75 63 315 109 131 121 222 225 155 148 162 177 184 195 207 204 206 192 171 163 151 147 155 131 110 99 94 88 73 55 57 47 50 62 77 94 107 105 97 82 76 79 80 82 73 73 67 67
52 113 193 274 169 140 153 225 220 163 162 180 192 198 206 214 218 207 186 172 165 159 146 132 119 114 105 93 80 70 61 53 38 42 53 67 86 103 107 104 92 90 83 78 90 73 83 84 81
184 170 202 223 208 149 183 231 210 182 178 192 197 203 210 213 219 199 182 171 157 145 133 131 121 112 106 91 74 56 50 39 34 38 46 67 81 96 102 102 93 93 89 79 86 89 73 78 84
157 159 199 239 203 156 209 233 223 196 192 198 202 207 214 222 221 186 173 157 140 135 137 145 135 133 122 102 92 79 54 21 24 26 39 55 79 95 104 106 99 97 99 105 106 100 88 74 75
138 150 216 292 129 156 215 260 243 205 206 203 201 207 210 212 200 183 172 163 162 163 162 154 151 149 138 122 118 116 111 72 43 15 32 35 60 90 111 110 110 108 107 102 105 112 106 81 56
175 184 196 190 75 69 101 308 261 239 221 207 204 205 203 203 198 189 181 179 174 177 178 170 166 156 143 130 107 81 57 39 29 22 18 12 41 72 96 110 110 110 116 128 129 126 124 125 61
217 219 176 150 123 271 144 281 277 240 234 223 215 207 208 206 196 188 183 183 187 188 177 166 163 155 148 144 134 129 122 112 28 12 31 27 38 63 84 100 106 110 113 125 139 125 120 130 127
195 121 121 128 131 47 350 217 282 254 238 235 221 212 208 202 194 190 187 186 185 178 170 165 158 151 147 147 143 132 122 125 88 56 63 49 36 49 73 88 99 107 108 117 121 117 113 124 140
124 77 61 53 72 302 230 190 276 234 223 230 217 212 205 197 193 188 178 167 169 166 162 158 155 155 152 150 144 144 144 141 122 90 78 55 41 42 58 79 85 98 105 114 118 116 117 117 118
96 94 48 10 8 258 248 205 253 253 233 221 213 207 199 189 182 175 168 169 173 171 168 162 160 162 161 157 155 158 159 156 156 155 136 113 73 53 53 79 88 91 106 110 109 107 106 112 114
158 139 153 187 221 278 289 239 257 265 263 233 210 193 183 180 180 181 179 178 179 175 170 167 170 169 166 164 166 164 160 155 161 162 152 148 147 141 111 100 96 94 100 103 102 96 98 97 100
138 156 156 132 160 279 282 286 300 296 342 184 163 163 178 183 183 185 180 179 178 176 177 176 172 169 170 169 162 162 164 163 168 161 147 148 150 137 117 108 102 96 97 101 104 94 94 95 88
139 141 111 120 148 256 295 283 262 285 280 261 187 184 187 181 181 181 178 179 180 180 173 168 169 172 171 166 168 169 171 172 165 151 156 162 150 127 121 112 105 100 98 101 100 94 93 94 84
109 108 115 124 151 159 267 275 233 239 234 220 221 203 188 185 183 182 181 178 171 164 163 167 169 167 169 168 166 162 167 164 158 162 172 166 148 140 136 132 122 114 109 106 105 101 102 100 89
157 163 147 152 198 172 186 269 274 247 236 212 218 207 190 185 181 177 172 164 163 166 171 174 175 175 178 171 163 167 163 157 160 171 175 161 152 146 143 138 131 127 119 119 125 124 115 114 110